QPF
0.00 0.00 0.00 0.00 0.00 0.00 0.00 0.00 0.00 0.00 0.00 0.00 0.00 0.00 0.00 0.00 0.00 0.00 0.02 0.01 0.00 0.00 0.00 0.00 0.00 0.00 0.00 0.00 0.02 0.03 0.01 0.06 0.02 0.04 0.03 0.01 0.00 0.00 0.00 0.00 0.00 0.00 0.00 0.00
0.00 0.00 0.00 0.00 0.00 0.00 0.00 0.00 0.00 0.00 0.00 0.00 0.00 0.00 0.00 0.00 0.00 0.00 0.00 0.00 0.00 0.00 0.00 0.00 0.00 0.00 0.01 0.02 0.04 0.11 0.06 0.03 0.01 0.03 0.01 0.00 0.00 0.00 0.00 0.00 0.00 0.00 0.00 0.00
0.00 0.00 0.00 0.00 0.00 0.00 0.00 0.00 0.00 0.00 0.00 0.00 0.00 0.00 0.00 0.00 0.00 0.00 0.00 0.00 0.00 0.00 0.00 0.00 0.00 0.00 0.00 0.00 0.03 0.19 0.03 0.01 0.00 0.00 0.00 0.00 0.00 0.00 0.00 0.00 0.00 0.00 0.00 0.00
0.00 0.00 0.00 0.00 0.00 0.00 0.00 0.00 0.00 0.00 0.00 0.00 0.00 0.00 0.00 0.00 0.00 0.00 0.00 0.00 0.00 0.00 0.00 0.00 0.00 0.00 0.00 0.00 0.02 0.09 0.04 0.00 0.00 0.00 0.00 0.00 0.00 0.00 0.00 0.00 0.00 0.00 0.00 0.00
0.01 0.00 0.00 0.00 0.00 0.00 0.00 0.00 0.00 0.00 0.00 0.00 0.00 0.00 0.00 0.00 0.00 0.00 0.00 0.00 0.00 0.00 0.00 0.00 0.00 0.00 0.00 0.02 0.02 0.02 0.01 0.00 0.00 0.00 0.00 0.00 0.00 0.00 0.00 0.00 0.00 0.00 0.00 0.00
0.00 0.00 0.01 0.00 0.00 0.00 0.00 0.00 0.00 0.00 0.00 0.00 0.00 0.00 0.00 0.00 0.00 0.01 0.02 0.00 0.00 0.00 0.00 0.00 0.00 0.00 0.00 0.00 0.01 0.00 0.00 0.00 0.00 0.00 0.00 0.00 0.00 0.00 0.00 0.00 0.00 0.00 0.00 0.00
0.00 0.00 0.00 0.00 0.00 0.00 0.00 0.00 0.00 0.00 0.00 0.00 0.00 0.01 0.00 0.00 0.01 0.01 0.03 0.00 0.00 0.00 0.00 0.00 0.00 0.00 0.00 0.00 0.00 0.00 0.00 0.00 0.00 0.00 0.00 0.00 0.00 0.00 0.00 0.00 0.00 0.00 0.00 0.00
0.00 0.00 0.00 0.00 0.00 0.00 0.00 0.00 0.00 0.01 0.01 0.00 0.01 0.01 0.00 0.00 0.00 0.00 0.00 0.00 0.00 0.00 0.00 0.00 0.00 0.00 0.01 0.00 0.00 0.00 0.00 0.00 0.00 0.00 0.00 0.00 0.00 0.00 0.00 0.00 0.00 0.00 0.00 0.00
0.00 0.00 0.01 0.00 0.00 0.00 0.00 0.00 0.00 0.00 0.00 0.00 0.00 0.00 0.00 0.00 0.00 0.00 0.00 0.00 0.00 0.00 0.00 0.00 0.00 0.00 0.00 0.00 0.00 0.00 0.00 0.00 0.00 0.00 0.00 0.00 0.00 0.00 0.00 0.00 0.00 0.00 0.00 0.00
0.00 0.09 0.03 0.00 0.00 0.00 0.00 0.00 0.00 0.00 0.00 0.00 0.00 0.00 0.00 0.00 0.00 0.00 0.00 0.00 0.00 0.00 0.00 0.00 0.00 0.00 0.00 0.00 0.00 0.00 0.00 0.00 0.00 0.00 0.00 0.00 0.00 0.00 0.00 0.00 0.00 0.00 0.00 0.00
0.00 0.02 0.03 0.00 0.00 0.00 0.00 0.00 0.00 0.00 0.00 0.00 0.00 0.00 0.00 0.00 0.00 0.00 0.00 0.00 0.00 0.00 0.00 0.00 0.00 0.00 0.00 0.00 0.00 0.00 0.00 0.00 0.00 0.00 0.00 0.00 0.00 0.00 0.00 0.00 0.00 0.00 0.00 0.00
0.00 0.00 0.00 0.00 0.00 0.00 0.00 0.01 0.01 0.00 0.00 0.00 0.00 0.00 0.00 0.00 0.00 0.00 0.00 0.00 0.00 0.00 0.00 0.00 0.00 0.00 0.00 0.00 0.00 0.00 0.00 0.00 0.00 0.00 0.00 0.00 0.00 0.00 0.00 0.00 0.00 0.00 0.00 0.00
0.00 0.00 0.00 0.00 0.00 0.00 0.00 0.00 0.00 0.00 0.00 0.00 0.00 0.00 0.00 0.00 0.00 0.00 0.00 0.00 0.00 0.00 0.00 0.00 0.00 0.00 0.00 0.00 0.00 0.00 0.00 0.00 0.00 0.00 0.00 0.00 0.00 0.00 0.00 0.00 0.00 0.00 0.00 0.00
0.00 0.00 0.00 0.00 0.00 0.00 0.00 0.00 0.00 0.00 0.00 0.00 0.00 0.00 0.00 0.00 0.00 0.00 0.00 0.00 0.00 0.00 0.00 0.00 0.00 0.00 0.00 0.00 0.00 0.00 0.00 0.00 0.00 0.00 0.00 0.00 0.00 0.00 0.00 0.00 0.00 0.00 0.00 0.00
0.00 0.00 0.00 0.00 0.00 0.00 0.00 0.00 0.00 0.00 0.00 0.00 0.00 0.00 0.00 0.00 0.00 0.00 0.00 0.00 0.00 0.00 0.00 0.00 0.00 0.00 0.00 0.00 0.00 0.00 0.00 0.00 0.00 0.00 0.00 0.00 0.00 0.00 0.00 0.00 0.00 0.00 0.00 0.00
0.00 0.00 0.00 0.00 0.00 0.00 0.00 0.00 0.00 0.00 0.00 0.00 0.00 0.00 0.00 0.00 0.00 0.00 0.00 0.00 0.00 0.00 0.00 0.00 0.00 0.01 0.01 0.00 0.00 0.00 0.00 0.00 0.00 0.00 0.00 0.00 0.00 0.00 0.00 0.00 0.00 0.00 0.00 0.00
0.00 0.00 0.00 0.00 0.00 0.00 0.00 0.00 0.00 0.00 0.00 0.00 0.00 0.00 0.00 0.00 0.00 0.00 0.00 0.00 0.00 0.00 0.00 0.00 0.00 0.00 0.01 0.01 0.00 0.00 0.00 0.00 0.00 0.00 0.00 0.00 0.00 0.00 0.00 0.00 0.00 0.00 0.00 0.00
0.01 0.00 0.00 0.00 0.00 0.00 0.00 0.00 0.00 0.00 0.00 0.00 0.00 0.00 0.00 0.00 0.00 0.00 0.00 0.00 0.00 0.00 0.00 0.00 0.00 0.00 0.00 0.00 0.00 0.00 0.00 0.00 0.00 0.00 0.00 0.00 0.00 0.00 0.00 0.00 0.00 0.00 0.00 0.00
0.01 0.00 0.00 0.00 0.00 0.00 0.00 0.00 0.00 0.00 0.00 0.00 0.00 0.00 0.00 0.00 0.00 0.00 0.00 0.00 0.00 0.00 0.00 0.00 0.00 0.00 0.00 0.00 0.00 0.00 0.00 0.00 0.00 0.00 0.00 0.00 0.00 0.00 0.00 0.00 0.00 0.00 0.00 0.00
0.00 0.00 0.00 0.00 0.00 0.00 0.00 0.00 0.00 0.00 0.00 0.00 0.00 0.00 0.00 0.00 0.00 0.00 0.00 0.00 0.00 0.00 0.00 0.00 0.00 0.00 0.00 0.00 0.00 0.00 0.00 0.00 0.00 0.00 0.00 0.00 0.00 0.01 0.01 0.00 0.00 0.00 0.00 0.00
0.00 0.00 0.00 0.00 0.00 0.00 0.00 0.00 0.00 0.00 0.00 0.00 0.00 0.00 0.00 0.00 0.00 0.00 0.00 0.00 0.00 0.00 0.00 0.00 0.00 0.00 0.00 0.00 0.00 0.00 0.00 0.00 0.00 0.01 0.03 0.03 0.01 0.01 0.00 0.00 0.00 0.00 0.00 0.00
0.00 0.00 0.00 0.00 0.00 0.00 0.00 0.00 0.00 0.00 0.00 0.00 0.00 0.00 0.00 0.00 0.00 0.00 0.00 0.00 0.00 0.00 0.00 0.00 0.00 0.00 0.00 0.00 0.00 0.00 0.00 0.01 0.04 0.05 0.03 0.01 0.00 0.00 0.00 0.00 0.00 0.00 0.00 0.00
0.00 0.00 0.00 0.00 0.00 0.00 0.00 0.00 0.00 0.00 0.00 0.00 0.00 0.00 0.00 0.00 0.00 0.00 0.00 0.00 0.00 0.00 0.00 0.00 0.00 0.00 0.00 0.00 0.00 0.00 0.00 0.02 0.02 0.01 0.00 0.00 0.00 0.00 0.00 0.00 0.00 0.00 0.00 0.00
0.00 0.00 0.00 0.00 0.00 0.00 0.00 0.00 0.00 0.00 0.00 0.00 0.00 0.00 0.00 0.00 0.00 0.00 0.00 0.00 0.00 0.00 0.00 0.00 0.00 0.00 0.00 0.00 0.00 0.00 0.00 0.00 0.00 0.00 0.00 0.00 0.00 0.00 0.00 0.00 0.00 0.00 0.00 0.00
0.00 0.00 0.00 0.00 0.00 0.00 0.00 0.00 0.00 0.00 0.00 0.00 0.00 0.00 0.00 0.00 0.00 0.00 0.00 0.00 0.00 0.00 0.00 0.00 0.00 0.00 0.00 0.00 0.00 0.00 0.00 0.00 0.00 0.00 0.00 0.00 0.00 0.00 0.00 0.00 0.00 0.00 0.00 0.00
0.00 0.00 0.00 0.00 0.00 0.00 0.00 0.00 0.00 0.00 0.00 0.00 0.00 0.00 0.00 0.00 0.00 0.00 0.00 0.00 0.00 0.00 0.00 0.00 0.00 0.00 0.00 0.00 0.00 0.00 0.00 0.00 0.00 0.00 0.00 0.00 0.00 0.00 0.00 0.00 0.00 0.00 0.00 0.00
MSLP
1009.99 1010.56 1010.39 1010.04 1009.87 1009.60 1009.78 1009.47 1009.16 1008.14 1007.91 1008.16 1008.89 1009.24 1009.78 1009.97 1010.68 1011.38 1011.89 1012.38 1012.33 1012.76 1013.05 1013.41 1013.80 1014.60 1015.43 1016.01 1017.01 1017.85 1018.29 1019.01 1019.94 1020.29 1020.95 1021.46 1021.83 1021.91 1022.25 1022.22 1022.22 1022.55 1022.72 1023.01
1010.61 1010.61 1010.08 1009.72 1010.02 1009.70 1009.60 1009.35 1008.74 1007.77 1007.34 1008.18 1008.91 1009.47 1009.47 1009.70 1010.46 1010.94 1011.57 1011.95 1012.20 1012.56 1012.87 1013.19 1013.85 1014.51 1015.18 1016.17 1017.12 1017.60 1018.23 1018.98 1019.55 1019.82 1020.35 1020.58 1021.10 1021.78 1021.81 1021.96 1022.35 1022.62 1022.95 1023.29
1011.10 1010.69 1010.06 1009.86 1009.80 1009.79 1009.72 1009.45 1008.81 1008.39 1008.16 1008.37 1008.98 1010.24 1010.60 1010.06 1009.79 1010.73 1010.85 1011.03 1011.45 1011.96 1012.63 1013.24 1013.84 1014.69 1015.34 1016.23 1017.03 1017.56 1018.05 1018.43 1018.83 1019.46 1019.92 1020.48 1021.16 1021.82 1022.11 1022.37 1022.75 1022.88 1023.05 1023.36
1011.05 1010.01 1010.03 1009.96 1009.80 1009.06 1009.00 1008.82 1008.83 1008.90 1009.40 1009.94 1009.84 1011.36 1011.13 1010.67 1010.19 1010.27 1010.41 1010.64 1011.05 1011.57 1012.16 1012.81 1013.50 1014.41 1015.34 1016.25 1016.98 1017.72 1017.89 1018.04 1018.50 1019.14 1019.61 1019.99 1020.85 1021.67 1022.08 1022.40 1022.78 1023.07 1023.19 1023.42
1010.76 1010.31 1010.15 1010.23 1009.49 1008.82 1008.82 1008.73 1009.04 1009.63 1010.54 1011.22 1011.36 1011.65 1011.23 1010.52 1010.83 1010.57 1010.72 1010.71 1010.64 1010.82 1011.52 1012.44 1013.38 1014.33 1015.29 1016.08 1016.54 1017.17 1017.60 1017.89 1018.10 1018.59 1019.00 1019.90 1020.79 1021.34 1021.80 1022.39 1023.09 1023.41 1023.28 1023.26
1009.99 1009.53 1009.67 1009.25 1008.69 1008.44 1008.58 1009.12 1009.72 1010.55 1011.75 1012.42 1011.46 1011.30 1011.40 1011.05 1009.82 1010.13 1010.17 1009.80 1010.12 1011.14 1011.65 1012.43 1013.29 1014.17 1014.98 1015.68 1016.43 1016.90 1017.44 1017.88 1017.97 1018.36 1018.99 1019.61 1020.52 1021.45 1022.06 1022.69 1023.12 1023.22 1023.42 1023.75
1010.04 1009.60 1009.64 1009.08 1009.09 1008.91 1009.24 1010.04 1011.44 1012.57 1013.37 1013.66 1012.61 1011.79 1010.17 1009.37 1009.25 1009.06 1008.60 1009.28 1010.40 1010.73 1011.75 1012.62 1013.45 1014.24 1015.04 1015.79 1016.45 1017.05 1017.60 1018.28 1018.52 1018.92 1019.51 1019.98 1020.61 1021.27 1022.01 1022.55 1022.92 1023.22 1023.61 1023.86
1010.31 1010.44 1010.59 1009.96 1009.82 1009.29 1009.45 1010.37 1012.13 1013.76 1014.68 1014.05 1012.48 1011.25 1009.16 1007.70 1008.04 1008.83 1008.93 1009.66 1010.85 1011.32 1011.93 1012.73 1013.46 1014.36 1014.90 1016.03 1016.58 1017.29 1017.84 1018.44 1018.77 1019.31 1019.99 1020.45 1020.87 1021.38 1021.92 1022.37 1022.73 1023.02 1023.26 1023.68
1010.77 1011.21 1010.59 1010.10 1009.64 1009.76 1009.30 1010.19 1010.74 1013.37 1014.88 1014.47 1012.96 1010.35 1008.69 1008.12 1008.87 1009.37 1009.75 1010.64 1011.20 1011.52 1012.25 1013.07 1013.84 1014.47 1015.35 1016.25 1016.76 1017.39 1018.00 1018.60 1019.09 1019.71 1020.18 1020.69 1021.09 1021.53 1022.07 1022.48 1022.82 1023.39 1023.52 1023.52
1010.98 1011.54 1011.29 1010.69 1010.23 1009.04 1009.02 1009.79 1011.08 1012.34 1014.68 1014.91 1013.06 1011.28 1009.95 1009.31 1009.16 1009.26 1010.37 1010.80 1010.91 1011.50 1012.23 1013.05 1013.80 1014.51 1015.20 1015.88 1016.66 1017.54 1018.09 1018.75 1019.48 1020.06 1020.62 1021.18 1021.59 1021.96 1022.32 1022.61 1022.98 1023.13 1023.77 1023.93
1010.82 1011.37 1011.36 1011.16 1010.54 1009.39 1009.18 1009.54 1010.51 1011.97 1013.74 1014.66 1013.83 1012.06 1009.80 1009.16 1008.97 1009.36 1009.84 1009.98 1010.32 1011.00 1011.76 1012.60 1013.44 1014.12 1014.77 1015.56 1016.34 1017.27 1018.13 1018.86 1019.76 1020.28 1020.87 1021.42 1021.84 1022.16 1022.30 1022.51 1022.87 1023.02 1023.37 1023.52
1009.79 1010.85 1011.34 1010.56 1009.01 1008.44 1008.58 1009.28 1010.50 1012.42 1013.83 1014.25 1013.77 1012.13 1009.76 1008.95 1008.67 1008.55 1008.89 1009.50 1009.90 1010.37 1011.04 1011.74 1012.61 1013.55 1014.41 1015.17 1015.93 1016.66 1017.59 1018.51 1019.35 1020.05 1020.72 1021.37 1021.83 1022.15 1022.35 1022.56 1022.78 1023.09 1023.36 1023.51
1009.09 1009.97 1010.69 1010.38 1009.63 1008.72 1008.63 1008.86 1009.64 1011.04 1012.62 1013.60 1013.55 1011.78 1009.65 1008.65 1008.42 1008.38 1008.48 1008.69 1009.53 1010.03 1010.63 1011.20 1012.00 1012.73 1013.65 1014.55 1015.30 1016.08 1016.92 1017.77 1018.62 1019.46 1020.24 1020.98 1021.56 1021.96 1022.20 1022.46 1022.73 1022.80 1023.29 1023.37
1008.73 1009.83 1010.70 1010.84 1010.13 1009.36 1009.09 1009.08 1009.52 1010.46 1012.17 1012.71 1012.39 1011.18 1009.58 1008.83 1008.35 1008.29 1008.28 1008.48 1008.91 1009.42 1009.91 1010.53 1011.27 1011.86 1012.58 1013.34 1014.27 1015.33 1016.38 1017.18 1018.07 1018.90 1019.77 1020.45 1021.00 1021.41 1021.76 1022.14 1022.49 1022.79 1022.80 1023.23
1009.17 1010.40 1010.85 1010.83 1010.48 1009.99 1009.44 1009.43 1009.65 1009.96 1010.47 1011.29 1011.00 1010.57 1009.26 1008.71 1008.54 1008.25 1008.29 1008.54 1008.81 1009.44 1010.00 1010.42 1010.77 1011.58 1012.39 1013.36 1014.35 1015.21 1016.22 1016.82 1017.57 1018.56 1019.36 1019.92 1020.39 1020.95 1021.51 1021.88 1022.27 1022.36 1022.55 1022.71
1009.64 1011.11 1011.69 1011.95 1011.26 1010.75 1010.29 1009.62 1009.40 1009.41 1009.48 1009.69 1009.90 1009.69 1008.62 1008.33 1008.37 1008.71 1009.03 1009.10 1009.40 1009.68 1009.96 1010.11 1010.78 1011.58 1012.26 1013.13 1014.16 1014.99 1015.76 1016.49 1017.17 1018.04 1018.70 1019.36 1020.17 1020.96 1021.48 1021.81 1022.04 1022.36 1022.53 1022.43
1010.69 1012.03 1013.29 1013.70 1013.04 1012.07 1011.23 1009.56 1009.08 1009.02 1009.09 1009.39 1009.72 1009.76 1009.32 1009.42 1009.50 1009.58 1009.65 1009.69 1009.98 1010.12 1010.27 1010.61 1011.24 1011.79 1012.39 1013.08 1013.63 1014.55 1015.44 1016.25 1017.09 1017.89 1018.61 1019.44 1020.07 1020.70 1021.42 1022.01 1022.38 1022.64 1022.53 1022.41
1011.36 1013.00 1014.24 1015.33 1014.90 1013.45 1010.59 1009.04 1008.60 1008.89 1009.52 1009.48 1009.85 1010.09 1010.09 1010.24 1010.56 1010.38 1010.38 1010.54 1010.72 1010.80 1010.90 1011.17 1011.45 1011.96 1012.42 1012.91 1013.54 1014.42 1015.43 1016.60 1017.51 1018.39 1019.16 1019.67 1020.47 1021.23 1021.57 1022.19 1022.39 1022.63 1022.87 1022.68
1011.55 1013.41 1015.51 1016.23 1015.77 1013.45 1010.72 1009.52 1009.01 1008.95 1010.37 1010.24 1010.35 1010.60 1010.69 1010.68 1010.90 1011.51 1011.35 1011.27 1011.43 1011.40 1011.60 1011.88 1012.25 1012.55 1013.11 1013.54 1014.16 1015.17 1016.53 1017.56 1018.28 1019.04 1019.55 1020.19 1021.00 1021.89 1022.26 1022.41 1022.61 1022.67 1022.51 1022.32
1012.52 1013.64 1015.49 1016.68 1016.16 1014.19 1011.32 1009.80 1009.14 1009.17 1010.69 1010.84 1010.82 1011.13 1011.20 1011.23 1012.11 1012.51 1011.98 1011.92 1012.17 1012.71 1013.30 1013.82 1014.43 1014.65 1014.98 1015.84 1015.91 1016.88 1018.27 1018.86 1019.80 1020.64 1020.87 1020.79 1021.47 1021.81 1021.97 1022.19 1022.48 1022.51 1022.21 1022.12
1014.05 1014.89 1015.99 1016.21 1015.51 1013.33 1010.83 1009.70 1009.56 1010.42 1011.81 1011.19 1011.32 1011.61 1011.80 1012.30 1012.71 1012.57 1012.42 1012.76 1013.59 1014.45 1015.30 1015.85 1016.19 1016.89 1017.73 1017.95 1017.88 1018.79 1019.70 1020.29 1020.86 1020.99 1021.68 1021.84 1021.96 1021.95 1022.07 1022.00 1022.09 1022.17 1022.17 1022.08
1013.31 1014.50 1015.34 1015.40 1014.63 1012.80 1010.21 1010.00 1010.37 1010.96 1011.23 1011.52 1011.75 1011.98 1012.24 1012.51 1012.71 1012.95 1013.33 1014.33 1014.96 1016.06 1016.91 1017.49 1017.71 1018.53 1018.97 1019.09 1019.14 1019.84 1020.36 1021.19 1021.31 1021.45 1021.48 1021.58 1021.79 1022.01 1021.79 1021.86 1022.04 1022.02 1022.06 1022.25
1011.86 1011.81 1012.61 1012.70 1012.08 1010.86 1009.96 1010.08 1010.28 1010.66 1011.52 1012.08 1012.39 1012.60 1012.71 1013.29 1013.72 1013.95 1014.97 1015.80 1016.68 1017.43 1018.16 1018.75 1018.89 1019.40 1019.72 1019.81 1019.90 1020.34 1020.44 1020.79 1021.20 1021.50 1021.86 1021.90 1021.79 1021.73 1021.63 1021.68 1021.83 1021.96 1022.01 1022.01
1010.26 1010.17 1010.93 1011.35 1010.82 1010.52 1010.36 1010.84 1010.99 1011.37 1012.24 1012.80 1013.31 1013.62 1013.78 1014.40 1014.80 1015.67 1016.45 1017.33 1017.92 1018.57 1018.96 1019.33 1019.58 1020.01 1020.40 1020.52 1020.65 1020.90 1021.17 1021.44 1021.72 1021.91 1021.98 1021.95 1021.91 1021.79 1021.72 1021.68 1021.59 1021.69 1021.64 1021.63
1009.80 1009.81 1010.45 1010.99 1010.90 1011.28 1011.91 1011.96 1012.24 1012.73 1013.13 1013.88 1014.56 1015.04 1015.45 1015.67 1016.67 1017.28 1018.07 1018.74 1019.19 1019.48 1019.73 1020.03 1020.39 1020.85 1021.19 1021.27 1021.30 1021.33 1021.49 1021.62 1021.97 1022.15 1022.19 1022.17 1022.11 1021.92 1021.81 1021.51 1021.33 1021.31 1021.10 1020.97
1009.44 1009.63 1010.28 1011.15 1011.09 1011.40 1013.06 1013.19 1013.28 1013.81 1014.64 1015.23 1015.76 1016.58 1017.20 1017.43 1018.14 1018.67 1019.28 1019.77 1020.14 1020.42 1020.55 1020.75 1021.14 1021.33 1021.49 1021.52 1021.53 1021.49 1021.53 1021.66 1021.96 1022.10 1022.10 1022.00 1021.93 1021.72 1021.49 1021.23 1020.90 1020.70 1020.61 1020.42
Thickness
5648 5633 5628 5646 5654 5661 5655 5655 5654 5671 5688 5682 5673 5675 5679 5683 5680 5672 5673 5673 5678 5675 5678 5677 5674 5668 5666 5661 5652 5645 5642 5636 5629 5624 5617 5609 5605 5604 5599 5597 5593 5586 5583 5579
5636 5630 5653 5664 5663 5658 5658 5656 5661 5682 5692 5686 5679 5671 5681 5687 5681 5676 5671 5672 5676 5675 5675 5676 5672 5667 5667 5660 5650 5646 5641 5633 5628 5624 5616 5614 5609 5601 5598 5595 5588 5582 5576 5569
5631 5640 5658 5659 5654 5648 5654 5653 5659 5672 5687 5691 5684 5660 5661 5683 5693 5682 5681 5683 5683 5679 5677 5675 5672 5665 5663 5655 5647 5643 5639 5634 5629 5622 5618 5612 5604 5596 5592 5587 5580 5575 5568 5561
5632 5656 5653 5652 5647 5665 5652 5673 5672 5674 5663 5644 5674 5630 5657 5666 5681 5685 5682 5679 5681 5678 5681 5679 5674 5664 5657 5651 5645 5636 5634 5633 5628 5623 5616 5612 5604 5597 5590 5584 5576 5568 5561 5555
5634 5648 5646 5642 5649 5673 5659 5677 5675 5674 5660 5654 5652 5637 5647 5670 5663 5671 5668 5677 5677 5682 5680 5675 5670 5663 5656 5650 5646 5640 5634 5630 5629 5625 5620 5608 5597 5590 5581 5574 5565 5560 5556 5549
5650 5669 5663 5660 5670 5680 5680 5674 5671 5664 5647 5613 5657 5645 5638 5642 5668 5668 5676 5687 5689 5674 5674 5671 5667 5662 5656 5651 5643 5638 5633 5628 5626 5620 5612 5603 5593 5582 5573 5564 5556 5550 5542 5533
5650 5659 5663 5671 5660 5671 5665 5650 5617 5608 5594 5602 5649 5638 5649 5669 5676 5683 5691 5691 5684 5679 5671 5666 5662 5656 5651 5644 5640 5636 5629 5621 5617 5609 5601 5594 5585 5576 5565 5555 5546 5539 5530 5522
5632 5621 5641 5657 5656 5656 5658 5649 5609 5591 5592 5608 5650 5635 5655 5688 5691 5687 5688 5684 5677 5672 5668 5664 5659 5652 5648 5640 5634 5627 5622 5615 5610 5601 5590 5581 5574 5565 5556 5548 5539 5531 5522 5512
5624 5629 5648 5656 5662 5659 5660 5639 5660 5615 5609 5604 5628 5664 5675 5678 5669 5668 5670 5670 5668 5667 5662 5658 5653 5649 5641 5632 5627 5621 5616 5609 5601 5591 5581 5571 5564 5555 5545 5536 5527 5516 5508 5500
5626 5621 5633 5642 5654 5665 5663 5665 5632 5624 5603 5601 5628 5644 5640 5659 5667 5667 5658 5663 5667 5665 5658 5654 5650 5644 5639 5631 5623 5614 5608 5600 5589 5580 5570 5559 5550 5542 5533 5524 5515 5506 5494 5485
5633 5628 5627 5636 5636 5641 5649 5645 5652 5642 5613 5595 5587 5616 5667 5665 5668 5660 5657 5664 5667 5662 5657 5652 5647 5643 5638 5629 5618 5607 5597 5588 5578 5568 5557 5545 5536 5528 5521 5513 5503 5496 5484 5477
5640 5626 5606 5635 5661 5672 5666 5653 5642 5597 5618 5599 5590 5609 5668 5672 5671 5672 5667 5663 5664 5664 5660 5654 5647 5640 5632 5624 5614 5603 5590 5579 5569 5558 5546 5533 5524 5516 5507 5499 5491 5482 5473 5465
5654 5632 5592 5616 5639 5660 5654 5658 5657 5641 5613 5609 5581 5607 5664 5672 5672 5673 5669 5670 5661 5660 5654 5649 5641 5636 5628 5619 5610 5599 5586 5575 5562 5551 5537 5523 5513 5503 5495 5487 5479 5471 5459 5452
5655 5641 5618 5595 5623 5643 5640 5647 5649 5639 5591 5601 5600 5630 5648 5656 5656 5660 5665 5669 5661 5660 5654 5646 5637 5631 5623 5615 5605 5594 5580 5568 5556 5543 5529 5516 5505 5495 5486 5477 5467 5457 5448 5438
5644 5624 5637 5636 5640 5641 5643 5643 5643 5638 5632 5611 5626 5632 5647 5656 5651 5654 5656 5657 5659 5651 5646 5635 5631 5622 5614 5603 5591 5581 5569 5559 5548 5534 5520 5509 5498 5488 5476 5466 5454 5446 5436 5427
5643 5614 5626 5622 5632 5627 5623 5635 5639 5640 5644 5645 5644 5638 5660 5659 5656 5651 5650 5648 5644 5640 5637 5636 5627 5616 5608 5597 5584 5574 5562 5550 5538 5525 5514 5501 5489 5474 5462 5452 5442 5432 5422 5414
5621 5600 5589 5596 5602 5607 5589 5623 5630 5637 5643 5640 5623 5633 5640 5639 5640 5639 5640 5639 5635 5636 5628 5622 5612 5606 5597 5588 5580 5567 5554 5542 5527 5516 5503 5488 5476 5464 5450 5437 5426 5415 5407 5397
5607 5600 5578 5572 5573 5564 5616 5647 5646 5636 5631 5632 5629 5629 5632 5632 5629 5630 5628 5622 5619 5616 5614 5611 5605 5595 5587 5578 5568 5557 5544 5527 5513 5500 5486 5474 5461 5448 5437 5423 5412 5400 5389 5379
5615 5587 5572 5564 5562 5593 5618 5630 5633 5629 5613 5625 5622 5623 5623 5626 5619 5609 5613 5611 5608 5607 5602 5597 5593 5586 5572 5562 5552 5539 5521 5506 5494 5482 5471 5459 5445 5430 5417 5406 5395 5385 5376 5366
5606 5591 5569 5558 5559 5556 5598 5629 5637 5634 5584 5618 5617 5613 5612 5611 5574 5589 5603 5601 5595 5588 5580 5569 5560 5553 5543 5530 5527 5512 5494 5484 5471 5457 5448 5441 5425 5415 5406 5394 5382 5372 5364 5356
5562 5561 5556 5535 5538 5573 5615 5629 5632 5587 5582 5613 5611 5607 5602 5592 5585 5591 5594 5586 5574 5563 5549 5538 5530 5518 5507 5502 5498 5484 5471 5459 5449 5440 5427 5418 5409 5399 5390 5382 5371 5360 5349 5340
5575 5559 5542 5553 5552 5565 5621 5621 5600 5597 5607 5605 5603 5600 5595 5592 5587 5581 5575 5562 5553 5537 5523 5514 5507 5496 5488 5482 5477 5465 5455 5442 5433 5425 5418 5409 5399 5387 5379 5368 5356 5346 5335 5323
5583 5591 5577 5582 5576 5604 5619 5611 5612 5609 5601 5594 5590 5587 5584 5574 5568 5564 5554 5536 5524 5513 5501 5493 5488 5480 5473 5468 5460 5450 5444 5433 5423 5412 5400 5391 5382 5373 5363 5353 5342 5330 5319 5307
5614 5616 5588 5593 5608 5610 5610 5601 5600 5597 5588 5582 5573 5568 5565 5557 5550 5536 5526 5513 5504 5493 5486 5479 5472 5463 5455 5450 5443 5433 5424 5413 5402 5392 5382 5374 5366 5357 5346 5336 5327 5318 5306 5298
5599 5607 5599 5592 5600 5591 5584 5583 5581 5575 5570 5562 5552 5545 5539 5533 5519 5509 5497 5488 5482 5476 5469 5461 5453 5444 5435 5428 5421 5414 5404 5395 5384 5375 5366 5357 5347 5339 5330 5323 5316 5308 5301 5294
5602 5595 5575 5558 5589 5584 5569 5567 5565 5557 5547 5540 5530 5517 5511 5507 5496 5487 5476 5468 5461 5454 5448 5442 5432 5425 5419 5411 5404 5396 5388 5379 5369 5359 5349 5340 5331 5323 5317 5311 5306 5299 5292 5285